When you browse on this site, cookies collect data to enhance your experience and personalize the content and advertising you see.
Visit our Privacy Policy to learn more. By continuing to use the site, you agree to this use of cookies and data.
EN

Hourly Weather Gola

Today, 25 September, Friday

Time Temperature Precipitation Wind Pressure Humidity
00:00 +17°C° 0 mm 2 mps 739 mmHg 80%
01:00 +16°C° 0 mm 3 mps 738 mmHg 81%
02:00 +16°C° 0 mm 3 mps 737 mmHg 80%
03:00 +16°C° 0 mm 3 mps 737 mmHg 80%
04:00 +15°C° 0 mm 4 mps 736 mmHg 79%
05:00 +15°C° 0.1 mm 4 mps 735 mmHg 78%
06:00 +17°C° 0.1 mm 4 mps 735 mmHg 76%
07:00 +17°C° 0.1 mm 4 mps 734 mmHg 74%
08:00 +17°C° 0.5 mm 5 mps 734 mmHg 74%
09:00 +17°C° 0.5 mm 5 mps 733 mmHg 73%
10:00 +19°C° 0.5 mm 6 mps 733 mmHg 73%
11:00 +17°C° 2.2 mm 5 mps 733 mmHg 79%
12:00 +15°C° 2.2 mm 4 mps 733 mmHg 85%
13:00 +14°C° 2.2 mm 4 mps 733 mmHg 91%
14:00 +14°C° 0.1 mm 3 mps 733 mmHg 90%
15:00 +15°C° 0.1 mm 2 mps 733 mmHg 90%
16:00 +15°C° 0.1 mm 2 mps 733 mmHg 89%
17:00 +15°C° 0.1 mm 2 mps 733 mmHg 90%
18:00 +15°C° 0.1 mm 2 mps 733 mmHg 90%
19:00 +15°C° 0.1 mm 2 mps 733 mmHg 90%
20:00 +14°C° 0 mm 2 mps 733 mmHg 90%
21:00 +14°C° 0 mm 2 mps 733 mmHg 90%
22:00 +14°C° 0 mm 2 mps 733 mmHg 90%
23:00 +14°C° 0 mm 2 mps 733 mmHg 90%

Tomorrow, 26 September, Saturday

Time Temperature Precipitation Wind Pressure Humidity
00:00 +12°C° 0 mm 3 mps 732 mmHg 90%
01:00 +12°C° 0 mm 3 mps 732 mmHg 90%
02:00 +12°C° 0.2 mm 3 mps 731 mmHg 91%
03:00 +12°C° 0.2 mm 4 mps 731 mmHg 92%
04:00 +12°C° 0.2 mm 4 mps 730 mmHg 94%
05:00 +12°C° 1.8 mm 4 mps 729 mmHg 93%
06:00 +12°C° 1.8 mm 5 mps 729 mmHg 93%
07:00 +12°C° 1.8 mm 5 mps 728 mmHg 93%
08:00 +13°C° 1.2 mm 5 mps 728 mmHg 93%
09:00 +13°C° 1.2 mm 5 mps 728 mmHg 93%
10:00 +14°C° 1.2 mm 5 mps 728 mmHg 94%
11:00 +15°C° 0.2 mm 5 mps 728 mmHg 89%
12:00 +16°C° 0.2 mm 5 mps 729 mmHg 83%
13:00 +17°C° 0.2 mm 5 mps 729 mmHg 78%
14:00 +16°C° 0 mm 5 mps 729 mmHg 76%
15:00 +15°C° 0 mm 6 mps 730 mmHg 73%
16:00 +14°C° 0 mm 7 mps 730 mmHg 71%
17:00 +11°C° 0 mm 6 mps 731 mmHg 72%
18:00 +10°C° 0 mm 5 mps 731 mmHg 73%
19:00 +10°C° 0 mm 4 mps 732 mmHg 74%
20:00 +8°C° 0 mm 4 mps 733 mmHg 75%
21:00 +9°C° 0 mm 3 mps 733 mmHg 77%
22:00 +8°C° 0 mm 3 mps 734 mmHg 78%
23:00 +8°C° 0 mm 3 mps 734 mmHg 79%

Day after tomorrow, 27 September, Sunday

Time Temperature Precipitation Wind Pressure Humidity
00:00 +8°C° 0 mm 2 mps 735 mmHg 80%
01:00 +8°C° 0 mm 2 mps 735 mmHg 81%
02:00 +8°C° 0 mm 2 mps 735 mmHg 82%
03:00 +7°C° 0 mm 2 mps 735 mmHg 82%
04:00 +7°C° 0 mm 2 mps 736 mmHg 82%
05:00 +9°C° 0 mm 1 mps 736 mmHg 81%
06:00 +9°C° 0 mm 1 mps 736 mmHg 81%
07:00 +9°C° 0 mm 1 mps 737 mmHg 80%
08:00 +9°C° 0 mm 2 mps 737 mmHg 75%
09:00 +11°C° 0 mm 3 mps 737 mmHg 70%
10:00 +12°C° 0 mm 4 mps 738 mmHg 66%
11:00 +12°C° 0 mm 4 mps 738 mmHg 65%
12:00 +13°C° 0 mm 4 mps 738 mmHg 64%
13:00 +13°C° 0 mm 4 mps 738 mmHg 64%
14:00 +13°C° 0.2 mm 4 mps 738 mmHg 68%
15:00 +12°C° 0.2 mm 4 mps 738 mmHg 72%
16:00 +12°C° 0.2 mm 4 mps 738 mmHg 76%
17:00 +11°C° 0.8 mm 4 mps 738 mmHg 80%
18:00 +11°C° 0.8 mm 4 mps 738 mmHg 84%
19:00 +11°C° 0.8 mm 4 mps 738 mmHg 88%
20:00 +10°C° 0.8 mm 5 mps 738 mmHg 88%
21:00 +9°C° 0.8 mm 5 mps 738 mmHg 89%
22:00 +9°C° 0.8 mm 5 mps 739 mmHg 89%
23:00 +9°C° 0.8 mm 5 mps 738 mmHg 88%

28 September, Monday

Time Temperature Precipitation Wind Pressure Humidity
00:00 +9°C° 0.8 mm 5 mps 738 mmHg 88%
01:00 +9°C° 0.8 mm 5 mps 738 mmHg 88%
02:00 +9°C° 0.2 mm 5 mps 738 mmHg 88%
03:00 +9°C° 0.2 mm 5 mps 738 mmHg 87%
04:00 +9°C° 0.2 mm 6 mps 738 mmHg 87%
05:00 +9°C° 0.6 mm 6 mps 738 mmHg 86%
06:00 +9°C° 0.6 mm 6 mps 739 mmHg 85%
07:00 +8°C° 0.6 mm 6 mps 739 mmHg 85%
08:00 +8°C° 0.5 mm 6 mps 739 mmHg 84%
09:00 +9°C° 0.5 mm 6 mps 739 mmHg 84%
10:00 +9°C° 0.5 mm 5 mps 739 mmHg 83%
11:00 +9°C° 0.5 mm 5 mps 739 mmHg 84%
12:00 +10°C° 0.5 mm 4 mps 739 mmHg 84%
13:00 +10°C° 0.5 mm 4 mps 740 mmHg 84%
14:00 +11°C° 0.9 mm 4 mps 740 mmHg 85%
15:00 +11°C° 0.9 mm 4 mps 740 mmHg 85%
16:00 +11°C° 0.9 mm 4 mps 740 mmHg 86%
17:00 +11°C° 0.5 mm 4 mps 740 mmHg 86%
18:00 +10°C° 0.5 mm 4 mps 740 mmHg 86%
19:00 +10°C° 0.5 mm 4 mps 740 mmHg 87%
20:00 +10°C° 0.1 mm 3 mps 740 mmHg 87%
21:00 +10°C° 0.1 mm 3 mps 741 mmHg 87%
22:00 +10°C° 0.1 mm 3 mps 741 mmHg 87%
23:00 +10°C° 0.1 mm 3 mps 741 mmHg 87%

29 September, Tuesday

Time Temperature Precipitation Wind Pressure Humidity
00:00 +11°C° 0.1 mm 3 mps 741 mmHg 88%
01:00 +12°C° 0.1 mm 2 mps 741 mmHg 88%
02:00 +11°C° 0.2 mm 3 mps 741 mmHg 89%
03:00 +11°C° 0.2 mm 3 mps 741 mmHg 91%
04:00 +11°C° 0.2 mm 3 mps 741 mmHg 92%
05:00 +11°C° 0.1 mm 3 mps 741 mmHg 92%
06:00 +11°C° 0.1 mm 3 mps 741 mmHg 93%
07:00 +11°C° 0.1 mm 3 mps 742 mmHg 93%
08:00 +12°C° 0.1 mm 4 mps 742 mmHg 90%
09:00 +12°C° 0.1 mm 4 mps 742 mmHg 86%
10:00 +13°C° 0.1 mm 4 mps 742 mmHg 82%
11:00 +14°C° 0.4 mm 4 mps 742 mmHg 80%
12:00 +14°C° 0.4 mm 4 mps 743 mmHg 78%
13:00 +14°C° 0.4 mm 4 mps 743 mmHg 76%
14:00 +14°C° 0.5 mm 4 mps 743 mmHg 78%
15:00 +14°C° 0.5 mm 4 mps 743 mmHg 80%
16:00 +14°C° 0.5 mm 4 mps 743 mmHg 82%
17:00 +13°C° 0.3 mm 4 mps 744 mmHg 85%
18:00 +12°C° 0.3 mm 3 mps 744 mmHg 88%
19:00 +12°C° 0.3 mm 3 mps 745 mmHg 91%
20:00 +11°C° 0.1 mm 3 mps 745 mmHg 93%
21:00 +11°C° 0.1 mm 3 mps 745 mmHg 94%
22:00 +10°C° 0.1 mm 2 mps 746 mmHg 96%
23:00 +10°C° 0 mm 2 mps 746 mmHg 96%

30 September, Wednesday

Time Temperature Precipitation Wind Pressure Humidity
00:00 +10°C° 0 mm 2 mps 746 mmHg 97%
01:00 +10°C° 0 mm 2 mps 746 mmHg 97%
02:00 +9°C° 0 mm 2 mps 746 mmHg 97%
03:00 +9°C° 0 mm 2 mps 746 mmHg 97%
04:00 +9°C° 0 mm 2 mps 746 mmHg 97%
05:00 +9°C° 0 mm 2 mps 746 mmHg 96%
06:00 +10°C° 0 mm 2 mps 746 mmHg 96%
07:00 +10°C° 0 mm 3 mps 746 mmHg 95%
08:00 +11°C° 0 mm 3 mps 746 mmHg 90%
09:00 +12°C° 0 mm 3 mps 746 mmHg 85%
10:00 +14°C° 0 mm 4 mps 746 mmHg 80%
11:00 +14°C° 0 mm 4 mps 746 mmHg 77%
12:00 +15°C° 0 mm 4 mps 746 mmHg 73%
13:00 +17°C° 0 mm 4 mps 746 mmHg 70%
14:00 +17°C° 0 mm 4 mps 746 mmHg 70%
15:00 +15°C° 0 mm 4 mps 745 mmHg 71%
16:00 +15°C° 0 mm 4 mps 745 mmHg 71%
17:00 +14°C° 0 mm 4 mps 745 mmHg 76%
18:00 +13°C° 0 mm 3 mps 745 mmHg 80%
19:00 +12°C° 0 mm 3 mps 745 mmHg 85%
20:00 +11°C° 0 mm 3 mps 745 mmHg 85%
21:00 +11°C° 0 mm 3 mps 745 mmHg 86%
22:00 +10°C° 0 mm 3 mps 745 mmHg 87%
23:00 +10°C° 0 mm 3 mps 745 mmHg 86%
Show more